Home > Time Zones > World Clock > Weather > U.S.A. > Nome > Past weeks

Flag for U.S.A. Weather past 2 weeks in Nome, Alaska, U.S.A.

Now
51 °F

Broken clouds.


Feels Like: 49 °F
Forecast: 41 / 54 °F
Wind: 6 mph from Southwest

Location: Nome Airport

Current Time: Jul 23, 2014 at 8:23:26 PM

Latest Report: Jul 23, 2014 at 7:53 PM


Visibility: 10 mi

Pressure: 29.70 "Hg

Humidity: 92%

Dew point: 49 °F

Location of NomeLocation

Historic Weather in Nome — Graph

°F

Nome temperature yesterday

Maximum temperature yesterday: 54 °F (at 6:53 PM)
Minimum temperature yesterday: 40 °F (at 6:53 AM)
Average temperature yesterday: 48 °F

Past Weeks' High & Low Weather Summary

 TemperatureHumidityPressure
High69 °F (Jul 10, 3:53 PM)100% (Jul 10, 4:53 AM)30.09 "Hg (Jul 10, 4:53 AM)
Low37 °F (Jul 18, 5:53 AM)42% (Jul 10, 3:53 PM)29.43 "Hg (Jul 19, 9:53 AM)
Average51 °F87%29.81 "Hg
* Reported Jul 8 6:53 PM — Jul 23 6:53 PM, Nome, Weather by CustomWeather, © 2014

Note: Actual official high and low records may vary slightly from our data, if they occured in-between our weather recording intervals... More about our weather records

Advertising

Nome weather history for previous 24 hours

 ConditionsComfort  
Time TempWeatherWind HumidityBarometerVisibility
6:53 PM
Jul 23
50 °FCloudy.9 mph93%29.69 "Hg10 mi
5:53 PM50 °FOvercast.6 mph93%29.69 "Hg10 mi
4:53 PM48 °FMostly cloudy.5 mph96%29.68 "Hg7 mi
3:53 PM48 °FFog.5 mph96%29.67 "Hg5 mi
2:53 PM47 °FFog.6 mph100%29.67 "Hg4 mi
2:02 PM47 °FFog.8 mph100%29.66 "Hg4 mi
1:53 PM47 °FFog.8 mph100%29.66 "Hg2 mi
12:53 PM48 °FFog.10 mph96%29.67 "Hg5 mi
11:53 AM46 °FLight rain. Fog.14 mph100%29.67 "Hg2 mi
10:53 AM46 °FLight rain. Fog.15 mph100%29.67 "Hg2 mi
10:01 AM45 °FLight rain. Fog.17 mph100%29.68 "Hg1 mi
8:53 AM45 °FFog.17 mph100%29.70 "Hg2 mi
7:53 AM45 °FLight rain. Fog.16 mph97%29.71 "Hg2 mi
6:53 AM44 °FLight rain. Fog.16 mph96%29.72 "Hg3 mi
5:53 AM45 °FLight rain. Low clouds.16 mph93%29.74 "Hg10 mi
4:53 AM44 °FLight rain. Mostly cloudy.16 mph96%29.75 "Hg9 mi
1:53 AM43 °FCloudy.14 mph86%29.77 "Hg10 mi
12:53 AM44 °FCloudy.16 mph85%29.77 "Hg10 mi
11:53 PM
Jul 22
44 °FBroken clouds.15 mph85%29.78 "Hg10 mi
9:53 PM51 °FScattered clouds.16 mph74%29.78 "Hg10 mi
8:53 PM53 °FScattered clouds.15 mph72%29.79 "Hg10 mi
Weather by CustomWeather, © 2014

See weather overviewHow to use our weather pages